Torna al catalogo

OPS 4682 DEB

AttivoPO
NORAD 51501·DEBRIS·🇺🇸 United States

Lanciato Apr 3, 1965 da Vandenberg Space Force Base

Loading…

Prossimi Passaggi (prossime 24 ore)

TLE

AggiornatoSource: Space-Track

Epoca: Sep 14, 2026, 09:13 UTC

1 51501U 65027GM  26257.38419200 -.00000024  00000-0 -91713-4 0  9994
2 51501  90.3532  47.0937 0022837  94.3420 266.0318 13.09333700540420

Traccia OPS 4682 DEB in tempo reale con AllMySat

Download on the App Store